History for Miami, FL

Tuesday, January 8, 2013 — View Current Conditions

Jump to Data:

Date:
Airport Code:
Recently Viewed Airport Codes: KMIA
Daily Summary
  Actual Average Record
Temperature
Mean Temperature 77°F 68°F  
Max Temperature 82°F 76°F 86°F (1990)
Min Temperature 71°F 60°F 36°F (1903)
Degree Days
Heating Degree Days 0 2  
Month to date heating degree days 0 16  
Since 1 July heating degree days 16 53  
Cooling Degree Days 12 5  
Month to date cooling degree days 81 40  
Year to date cooling degree days 81 40  
Growing Degree Days 26 (Base 50)    
Moisture
Dew Point 70°F    
Average Humidity 82    
Maximum Humidity 90    
Minimum Humidity 74    
Precipitation
Precipitation 0.14 in 0.05 in 1.92 in (1986)
Month to date precipitation 0.20 0.41  
Year to date precipitation 0.20 0.41  
Snow
Snow 0.00 in in in ()
Month to date snowfall 0.0  
Since 1 July snowfall 0.0  
Snow Depth 0.00 in    
Sea Level Pressure
Sea Level Pressure 30.15 in    
Wind
Wind Speed 9 mph (ESE)    
Max Wind Speed 20 mph    
Max Gust Speed 23 mph    
Visibility 10 miles    
Events Rain    
T = Trace of Precipitation, MM = Missing Value Source: NWS Daily Summary

Show full METARS

(help) - Comma Delimited File

Hourly Observations

Time(EST) Temperature Dew Point Humidity Sea Level Pressure Visibility Wind Direction Wind Speed Gust Speed Precipitation Events Conditions
12:53 AM 72.0°F 68.0°F 87% 30.11 in 10.0 miles North 3.5 mph - N/A   Mostly Cloudy
1:53 AM 71.1°F 68.0°F 90% 30.10 in 10.0 miles Calm Calm - N/A   Mostly Cloudy
2:53 AM 73.9°F 70.0°F 87% 30.09 in 10.0 miles East 8.1 mph - N/A   Mostly Cloudy
3:53 AM 73.9°F 69.1°F 85% 30.08 in 10.0 miles ESE 6.9 mph - N/A   Mostly Cloudy
4:53 AM 73.9°F 68.0°F 82% 30.09 in 10.0 miles ESE 5.8 mph - N/A   Scattered Clouds
5:53 AM 72.0°F 68.0°F 87% 30.10 in 10.0 miles East 6.9 mph - N/A   Scattered Clouds
6:53 AM 73.9°F 69.1°F 85% 30.13 in 10.0 miles East 4.6 mph - N/A   Scattered Clouds
7:53 AM 73.9°F 69.1°F 85% 30.15 in 10.0 miles East 5.8 mph - N/A   Mostly Cloudy
8:53 AM 78.1°F 70.0°F 76% 30.18 in 10.0 miles East 9.2 mph - N/A   Mostly Cloudy
9:37 AM 77.0°F 69.8°F 78% 30.20 in 10.0 miles East 8.1 mph - N/A   Mostly Cloudy
9:53 AM 75.9°F 71.1°F 85% 30.21 in 7.0 miles SE 8.1 mph - 0.00 in Rain Rain
10:40 AM 78.8°F 69.8°F 74% 30.20 in 10.0 miles East 12.7 mph - 0.01 in   Mostly Cloudy
10:53 AM 81.0°F 70.0°F 69% 30.20 in 10.0 miles East 13.8 mph 19.6 mph 0.01 in   Mostly Cloudy
11:53 AM 81.0°F 71.1°F 72% 30.18 in 10.0 miles ESE 15.0 mph - N/A   Mostly Cloudy
12:02 PM 82.4°F 69.8°F 66% 30.17 in 10.0 miles ESE 15.0 mph - N/A   Mostly Cloudy
12:53 PM 79.0°F 71.1°F 77% 30.16 in 10.0 miles ESE 15.0 mph 21.9 mph N/A   Mostly Cloudy
1:53 PM 77.0°F 71.1°F 82% 30.14 in 10.0 miles SE 6.9 mph - N/A   Mostly Cloudy
2:53 PM 81.0°F 71.1°F 72% 30.13 in 10.0 miles ESE 13.8 mph - N/A   Mostly Cloudy
3:45 PM 78.8°F 69.8°F 74% 30.13 in 10.0 miles ESE 13.8 mph - N/A   Mostly Cloudy
3:53 PM 79.0°F 70.0°F 74% 30.14 in 10.0 miles ESE 15.0 mph - N/A   Mostly Cloudy
4:53 PM 78.1°F 70.0°F 76% 30.14 in 10.0 miles ESE 12.7 mph - N/A   Mostly Cloudy
5:53 PM 78.1°F 70.0°F 76% 30.15 in 10.0 miles East 10.4 mph - N/A   Mostly Cloudy
6:53 PM 77.0°F 71.1°F 82% 30.16 in 10.0 miles East 10.4 mph - N/A   Scattered Clouds
7:53 PM 77.0°F 71.1°F 82% 30.16 in 10.0 miles East 12.7 mph - N/A   Scattered Clouds
8:19 PM 77.0°F 71.6°F 83% 30.16 in 10.0 miles East 11.5 mph - 0.00 in   Mostly Cloudy
8:53 PM 77.0°F 71.1°F 82% 30.17 in 10.0 miles East 12.7 mph - 0.00 in Rain Light Rain
9:51 PM 75.2°F 71.6°F 89% 30.17 in 10.0 miles East 11.5 mph - 0.13 in   Mostly Cloudy
9:53 PM 75.9°F 72.0°F 87% 30.17 in 10.0 miles ESE 10.4 mph - 0.13 in   Mostly Cloudy
10:53 PM 75.9°F 71.1°F 85% 30.17 in 10.0 miles East 8.1 mph - N/A   Overcast
11:53 PM 75.2°F 69.8°F 83% 30.17 in 9.0 miles ESE 8.1 mph - N/A   Overcast